SQ3KKR-13 Weather Reports


Display with metric or nautical units.
time (UTC)temp
F
wind
direction
speed
MPH
gust
MPH
rain 1hr
in
rain 24hr
in
rain mn
in
humidity
%
barometer
mb
20210419115251 68 42 3.0 6.0 0.00 0.01 0.00 43 1014.7
20210419114255 70 135 3.0 5.0 0.00 0.01 0.00 41 1014.6
20210419113450 69 81 3.0 5.0 0.00 0.01 0.00 41 1014.6
20210419112822 69 347 3.0 4.0 0.00 0.01 0.00 42 1014.5
20210419112035 69 84 3.0 5.0 0.00 0.01 0.00 46 1014.8
20210419111104 68 66 3.0 5.0 0.00 0.01 0.00 43 1014.8
20210419110253 68 59 3.0 5.0 0.00 0.01 0.00 42 1014.9
20210419105739 69 5 2.0 4.0 0.00 0.01 0.00 42 1015.0
20210419104655 68 28 3.0 4.0 0.00 0.01 0.00 44 1015.0
20210419103850 67 359 3.0 4.0 0.00 0.01 0.00 45 1014.9
20210419103057 67 36 3.0 4.0 0.00 0.01 0.00 43 1015.3
20210419102330 66 21 5.0 8.0 0.00 0.01 0.00 46 1015.1
20210419101451 65 16 5.0 8.0 0.00 0.01 0.00 45 1015.2
20210419100650 65 42 5.0 6.0 0.00 0.01 0.00 44 1015.1
20210419095850 68 13 3.0 6.0 0.00 0.01 0.00 42 1015.3
20210419095247 66 10 5.0 6.0 0.00 0.01 0.00 45 1015.1
20210419094252 64 33 5.0 8.0 0.00 0.01 0.00 42 1015.1
20210419093451 67 310 3.0 4.0 0.00 0.01 0.00 43 1015.3
20210419092721 66 346 4.0 8.0 0.00 0.01 0.00 44 1015.1
20210419091857 64 12 4.0 5.0 0.00 0.01 0.00 47 1015.3
20210419091050 63 15 7.0 11.0 0.00 0.01 0.00 51 1015.4
20210419090251 64 322 4.0 10.0 0.00 0.01 0.00 43 1015.3
20210419085456 65 318 4.0 6.0 0.00 0.01 0.00 45 1015.5
20210419084650 65 329 4.0 8.0 0.00 0.01 0.00 47 1015.4
20210419083851 64 305 4.0 6.0 0.00 0.01 0.00 44 1015.6
20210419083051 62 353 5.0 6.0 0.00 0.01 0.00 51 1015.4
20210419082314 63 315 5.0 8.0 0.00 0.01 0.00 48 1015.5
20210419081451 64 291 5.0 8.0 0.00 0.01 0.00 48 1015.5
20210419080651 62 307 3.0 5.0 0.00 0.01 0.00 60 1015.5
20210419075851 59 343 4.0 6.0 0.00 0.01 0.00 58 1015.6
20210419075153 62 285 5.0 8.0 0.00 0.01 0.00 58 1015.7
20210419074253 60 300 5.0 8.0 0.00 0.01 0.00 61 1015.9
20210419073450 59 320 4.0 8.0 0.00 0.01 0.00 63 1016.1
20210419072652 58 268 4.0 8.0 0.00 0.01 0.00 67 1016.1
20210419071938 54 321 3.0 6.0 0.00 0.01 0.00 70 1016.3
20210419071050 56 273 3.0 4.0 0.00 0.01 0.00 66 1016.6
20210419070251 57 273 2.0 4.0 0.00 0.01 0.00 71 1016.6
20210419065455 54 332 2.0 4.0 0.00 0.01 0.00 82 1016.8
20210419064650 52 280 4.0 5.0 0.00 0.01 0.00 87 1016.8
20210419063850 49 266 4.0 5.0 0.00 0.01 0.00 88 1017.1
20210419063050 48 229 3.0 4.0 0.00 0.01 0.00 89 1017.2
20210419062523 47 222 1.0 2.0 0.00 0.01 0.00 88 1017.5
20210419061450 46 93 5.0 13.0 0.00 0.01 0.00 87 1017.5
20210419060651 47 90 12.0 13.0 0.00 0.01 0.00 86 1017.3
20210419055850 47 93 3.0 13.0 0.00 0.01 0.00 86 1018.1
20210419055152 47 244 0.0 2.0 0.00 0.01 0.00 86 1017.0
20210419054250 47 262 1.0 2.0 0.00 0.01 0.00 86 1016.9
20210419053450 47 231 2.0 2.0 0.00 0.01 0.00 86 1016.9
20210419052738 47 273 2.0 3.0 0.00 0.01 0.00 87 1016.9
20210419051852 47 244 2.0 4.0 0.00 0.02 0.00 89 1016.7
20210419051051 47 268 1.0 2.0 0.00 0.04 0.00 90 1016.8
20210419050250 47 245 2.0 2.0 0.00 0.04 0.00 90 1016.8
20210419045527 46 229 2.0 3.0 0.00 0.04 0.00 91 1016.9
20210419044702 46 128 1.0 3.0 0.00 0.04 0.00 92 1016.6
20210419043851 46 155 1.0 2.0 0.00 0.04 0.00 93 1016.8
20210419043104 46 213 2.0 4.0 0.00 0.04 0.00 93 1016.7
20210419042354 46 299 1.0 4.0 0.00 0.04 0.00 94 1016.7
20210419041453 45 206 1.0 2.0 0.00 0.04 0.00 100 1016.8
20210419040654 44 275 1.0 1.0 0.00 0.05 0.00 100 1016.8
20210419035850 44 254 0.0 1.0 0.00 0.05 0.00 100 1016.8
20210419035158 44 241 1.0 2.0 0.00 0.06 0.00 100 1016.9
20210419034250 44 218 1.0 2.0 0.00 0.08 0.00 100 1016.9
20210419033751 44 247 1.0 2.0 0.00 0.12 0.00 100 1017.0
20210419031852 43 45 0.0 1.0 0.00 0.13 0.00 100 1017.2
20210419031051 43 349 0.0 1.0 0.00 0.13 0.00 100 1017.2
20210419030258 44 256 1.0 3.0 0.00 0.13 0.00 100 1017.1
20210419025747 44 262 1.0 3.0 0.00 0.13 0.00 99 1016.8
20210419024650 44 245 1.0 2.0 0.00 0.13 0.00 99 1017.1
20210419023850 44 264 1.0 2.0 0.00 0.13 0.00 99 1017.1
20210419023051 44 132 1.0 2.0 0.00 0.13 0.00 99 1017.0
20210419022553 44 214 1.0 2.0 0.00 0.13 0.00 99 1017.0
20210419021453 44 264 0.0 1.0 0.00 0.13 0.00 99 1017.1
20210419020653 44 0 0.0 0.0 0.00 0.13 0.00 99 1017.2
20210419015855 44 0 0.0 0.0 0.00 0.13 0.00 99 1017.1
20210419015135 44 0 0.0 0.0 0.00 0.13 0.00 99 1017.1
20210419014250 44 0 0.0 0.0 0.00 0.13 0.00 99 1017.1
20210419013500 44 0 0.0 0.0 0.00 0.13 0.00 99 1017.2
20210419012826 44 0 0.0 0.0 0.00 0.13 0.00 99 1017.1
20210419011917 44 0 0.0 0.0 0.00 0.13 0.00 99 1017.2
20210419011050 44 0 0.0 0.0 0.00 0.13 0.00 99 1017.2
20210419010250 44 0 0.0 0.0 0.00 0.13 0.00 100 1017.3
20210419005808 44 0 0.0 0.0 0.00 0.13 0.00 100 1017.3
20210419004651 44 0 0.0 0.0 0.00 0.13 0.00 100 1017.2
20210419003909 44 0 0.0 0.0 0.00 0.13 0.00 100 1017.4
20210419003239 44 0 0.0 0.0 0.00 0.13 0.00 97 1017.4
20210419002808 43 0 0.0 0.0 0.00 0.13 0.00 97 1017.3
20210419001451 43 0 0.0 0.0 0.00 0.13 0.00 97 1017.3
20210419000651 43 0 0.0 0.0 0.00 0.13 0.00 96 1017.6
20210418235857 42 0 0.0 0.0 0.00 0.13 0.00 96 1017.6
20210418235347 42 0 0.0 0.0 0.00 0.13 0.00 95 1017.7
20210418234251 42 0 0.0 0.0 0.00 0.13 0.00 95 1017.6
20210418233452 42 0 0.0 0.0 0.00 0.13 0.00 95 1017.8
20210418233103 42 0 0.0 0.0 0.00 0.13 0.00 94 1017.9
20210418232256 42 0 0.0 0.0 0.00 0.13 0.00 94 1017.8
20210418231050 42 0 0.0 0.0 0.00 0.13 0.00 93 1017.9
20210418230252 42 0 0.0 0.0 0.00 0.13 0.00 93 1017.8
20210418225837 42 0 0.0 0.0 0.00 0.13 0.00 93 1017.8
20210418224651 42 225 0.0 1.0 0.00 0.13 0.00 93 1018.0
20210418223850 43 225 0.0 1.0 0.00 0.13 0.00 93 1018.0
20210418223100 43 0 0.0 0.0 0.00 0.13 0.00 92 1018.0
20210418222731 43 270 0.0 1.0 0.00 0.13 0.00 92 1018.0
20210418221450 43 270 0.0 2.0 0.00 0.13 0.00 91 1018.0
20210418220650 44 0 0.0 0.0 0.00 0.13 0.00 91 1018.1
20210418215915 44 0 0.0 0.0 0.00 0.13 0.13 91 1018.1
20210418215423 44 0 0.0 0.0 0.00 0.13 0.13 91 1018.0
20210418214250 45 0 0.0 0.0 0.00 0.13 0.13 91 1018.1
20210418213450 45 0 0.0 0.0 0.00 0.13 0.13 91 1018.1
20210418212914 46 0 0.0 0.0 0.00 0.13 0.13 85 1018.1
20210418212027 46 0 0.0 0.0 0.00 0.13 0.13 85 1018.0
20210418211050 46 0 0.0 0.0 0.00 0.13 0.13 85 1018.0
20210418210250 46 0 0.0 0.0 0.00 0.13 0.13 85 1018.0
20210418205917 46 0 0.0 0.0 0.00 0.13 0.13 85 1018.0
20210418204656 46 0 0.0 0.0 0.00 0.13 0.13 85 1017.9
20210418203850 46 0 0.0 0.0 0.00 0.13 0.13 85 1017.9
20210418203050 46 0 0.0 0.0 0.00 0.13 0.13 85 1018.0
20210418202752 46 0 0.0 0.0 0.00 0.13 0.13 85 1017.9
20210418201453 46 0 0.0 0.0 0.00 0.13 0.13 84 1017.8
20210418200650 45 0 0.0 0.0 0.00 0.13 0.13 88 1017.8
20210418200011 45 0 0.0 0.0 0.00 0.13 0.13 87 1017.8
20210418195339 45 0 0.0 0.0 0.00 0.13 0.13 86 1017.7
20210418194250 45 0 0.0 0.0 0.00 0.13 0.13 85 1017.6
20210418193450 46 360 0.0 1.0 0.00 0.13 0.13 80 1017.9
20210418192947 47 130 1.0 2.0 0.00 0.13 0.13 80 1017.9
20210418192054 47 135 0.0 2.0 0.00 0.13 0.13 80 1017.8
20210418191104 48 0 0.0 0.0 0.00 0.13 0.13 79 1017.6
20210418190253 48 0 0.0 0.0 0.00 0.13 0.13 78 1017.6
20210418185725 48 0 0.0 0.0 0.00 0.13 0.13 77 1017.6
20210418184650 49 0 0.0 0.0 0.00 0.13 0.13 76 1017.5
20210418183853 49 0 0.0 0.0 0.00 0.13 0.13 75 1017.5
20210418183055 50 0 0.0 0.0 0.00 0.13 0.13 76 1017.4
20210418182550 50 0 0.0 0.0 0.00 0.13 0.13 75 1017.4
20210418181450 51 90 0.0 1.0 0.00 0.13 0.13 74 1017.4
20210418180650 51 90 0.0 1.0 0.00 0.13 0.13 72 1017.2
20210418175851 52 0 0.0 0.0 0.00 0.13 0.13 71 1017.2
20210418175240 53 0 0.0 0.0 0.00 0.13 0.13 70 1017.0
20210418174250 53 90 0.0 2.0 0.00 0.14 0.13 70 1017.1
20210418173451 54 92 2.0 2.0 0.00 0.14 0.13 70 1017.0
20210418172939 55 86 2.0 4.0 0.00 0.14 0.13 64 1016.8
20210418172035 56 88 2.0 2.0 0.00 0.14 0.13 63 1016.7
20210418171051 56 111 2.0 2.0 0.00 0.15 0.13 62 1016.6
20210418170259 57 122 2.0 2.0 0.00 0.15 0.13 61 1016.4
20210418165714 57 100 2.0 3.0 0.00 0.15 0.13 61 1016.4
20210418164650 57 122 1.0 2.0 0.00 0.15 0.13 61 1016.3
20210418163855 57 126 3.0 4.0 0.00 0.15 0.13 60 1016.2
20210418163229 58 144 3.0 4.0 0.00 0.15 0.13 60 1016.0
20210418162842 58 145 4.0 5.0 0.00 0.15 0.13 60 1016.0
20210418161452 58 109 5.0 6.0 0.00 0.15 0.13 60 1016.1
20210418160710 58 99 6.0 6.0 0.00 0.19 0.13 59 1016.1
20210418155858 58 126 6.0 8.0 0.00 0.20 0.13 58 1015.8
20210418155243 57 99 5.0 6.0 0.00 0.22 0.13 59 1015.8
20210418154250 57 81 5.0 7.0 0.00 0.25 0.13 54 1015.9
20210418153451 58 86 7.0 10.0 0.00 0.26 0.13 53 1015.8
20210418152744 60 74 6.0 8.0 0.00 0.26 0.13 51 1015.7
20210418151953 60 69 5.0 7.0 0.00 0.27 0.13 51 1015.6
20210418151052 60 86 4.0 7.0 0.00 0.27 0.13 55 1015.6
20210418150251 60 80 5.0 8.0 0.00 0.27 0.13 57 1015.6
20210418145738 60 77 4.0 8.0 0.00 0.27 0.13 61 1015.6
20210418144650 57 64 4.0 6.0 0.00 0.27 0.13 62 1015.6
20210418143851 56 46 4.0 5.0 0.00 0.27 0.13 63 1015.6
20210418143110 56 77 6.0 9.0 0.00 0.27 0.13 60 1015.6
20210418142643 58 66 6.0 8.0 0.01 0.27 0.13 56 1015.6
20210418141455 60 67 7.0 9.0 0.01 0.27 0.13 53 1015.6
20210418140650 62 54 7.0 9.0 0.01 0.27 0.13 52 1015.6
20210418135944 61 48 6.0 9.0 0.01 0.27 0.13 54 1015.7
20210418135454 59 50 5.0 6.0 0.01 0.27 0.13 56 1015.6
20210418134250 58 49 4.0 6.0 0.01 0.27 0.13 59 1015.7
20210418133450 56 19 8.0 11.0 0.01 0.27 0.13 60 1015.9
20210418132829 59 73 9.0 11.0 0.01 0.27 0.13 60 1015.8
20210418131924 60 92 7.0 10.0 0.00 0.26 0.12 61 1015.6
20210418131118 58 104 6.0 7.0 0.00 0.26 0.12 63 1015.7
20210418130343 58 87 5.0 6.0 0.00 0.26 0.12 62 1015.7
20210418130039 58 73 4.0 6.0 0.00 0.26 0.12 63 1015.8
20210418124759 58 67 4.0 5.0 0.00 0.26 0.12 63 1015.8
20210418124047 57 72 3.0 7.0 0.00 0.26 0.12 64 1015.9
20210418123528 57 99 7.0 11.0 0.00 0.26 0.12 61 1015.8
20210418122856 59 116 6.0 7.0 0.00 0.26 0.12 64 1016.2
20210418121511 59 92 5.0 8.0 0.00 0.26 0.12 65 1016.0
20210418120734 58 12 5.0 5.0 0.00 0.26 0.12 62 1016.1
20210418120127 58 43 4.0 5.0 0.00 0.26 0.12 61 1016.0